Location: Devore Heights
(34.2372°N, 117.4156°W)
Time: 22:13:39
(UTC+00:00)

Transit 4A - Pass Details

Date: 22 September 2024
Orbit: 864 x 978 km, 66.8° (Epoch: 13 October)

Event Time Altitude Azimuth Distance (km) Brightness Sun altitude
Rises 16:26:10 0° 351° (N) 3,611 10.7 32.8°
Reaches altitude 10° 16:30:12 10° 16° (NNE) 2,686 10.3 33.6°
Maximum altitude 16:33:17 14° 46° (NE) 2,426 10.4 34.1°
Drops below altitude 10° 16:36:24 10° 76° (ENE) 2,709 11.1 34.7°
Sets 16:40:28 0° 101° (E) 3,664 11.9 35.4°
